Other Surface Observations
Issued by NWS

Home | Current Version | Previous Version | Text Only | Print | Product List | Glossary On
Versions: 1 2 3 4 5 6 7 8 9 10 11 12 13 14 15 16 17 18 19 20 21 22 23 24 25 26 27 28 29 30 31 32 33 34 35 36 37 38 39 40 41 42 43 44 45 46 47 48 49 50
000
SXUS52 KTAE 211818
OSOTAE
OSOTAE
North Florida/South Alabama/Southwest Georgia Weather Roundup
National Weather Service Tallahassee Florida
200 PM EDT THU AUG 21 2014

Note: "fair" indicates few or no clouds below 12,000 feet with no
significant weather and/or obstructions to visibility.

!FLZ017-115-028-034-025-211900
...North Florida...

CITY           SKY/WX    TMP DP  RH WIND       PRES   REMARKS
TALLAHASSEE    PTSUNNY   94  72  48 W3        30.11F HX 102
APALACHICOLA   MOSUNNY   93  76  57 S10       30.11F HX 105
PERRY          MOSUNNY   91  72  52 W3        30.10F HX  98
CROSS CITY       N/A     94  75  54 VRB3      30.09F HX 105
HOMERVILLE     FAIR      97  68  38 NW10      30.10F HX 101
JACKSONVILLE   MOSUNNY   94  71  47 N9        30.07F HX 101
$$

!FLZ112-006-005-002-011-211900
...Florida Panhandle...

CITY           SKY/WX    TMP DP  RH WIND       PRES   REMARKS
MARIANNA       SUNNY     93  76  57 CALM      30.11F HX 105
BONIFAY        HVY RAIN  91  76  61 CALM      30.13S HX 103
PANAMA CITY NW FAIR      93  73  52 SW5       30.11F HX 102
TYNDALL AFB    SUNNY     90  80  71 SW10      30.13F HX 107
TYND DRONE APT FAIR      89  80  74 W9        30.11F HX 105
DE FUNIAK SPR  MOCLDY    90  73  57 N3        30.14S HX  98
EGLIN AFB      MOSUNNY   90  78  67 S12       30.12F HX 103
DESTIN         SUNNY     90  78  68 SW7       30.13S HX 104
HURLBURT       MOSUNNY   91  72  54 SW8       30.12S HX  98
CRESTVIEW      PTSUNNY   92  73  53 N5        30.14F HX 100
PENSACOLA      PTSUNNY   91  74  57 SE7       30.13S HX 100
$$

!ALZ063-066-211900
...South Alabama...

CITY           SKY/WX    TMP DP  RH WIND       PRES   REMARKS
DOTHAN         MOSUNNY   91  72  53 N3        30.16F HX  98
OZARK CAIRNS   SUNNY     91  74  57 VRB2      30.13F HX 100
FT RUCKER HELI MOSUNNY   93  72  50 SW5       30.11F HX 101
RUCKER HELI 3  FAIR      93  72  51 VRB3      30.16F HX 100
RUCKER HELI 2  FAIR      92  72  51 W5        30.13S HX  99
FLORALA APT    MOSUNNY   93  73  52 N5        30.15S HX 102
ANDALUSIA      MOSUNNY   96  72  45 CALM      30.13F HX 104
TROY           PTSUNNY   93  73  52 VRB3      30.14F HX 102
EUFALA         PTSUNNY   95  74  50 N5        30.11F HX 105
MOBILE         PTSUNNY   91  73  55 VRB5      30.14F HX  99
$$

!GAZ120>161-211900
...Southwest and South Central Georgia...

CITY           SKY/WX    TMP DP  RH WIND       PRES   REMARKS
THOMASVILLE    FAIR      91  73  55 N7        30.12F HX 100
BAINBRIDGE     MOSUNNY   95  73  49 CALM      30.12S HX 105
MOODY AFB      SUNNY     93  71  49 W9        30.10F HX  99
VALDOSTA       PTSUNNY   93  71  48 VRB5      30.10F HX 100
MOULTRIE       SUNNY     93  72  49 NW3       30.12F HX 100
BLAKELY        MOSUNNY   95  73  49 W3          N/A  HX 105
ALBANY         PTSUNNY   93  73  52 NW7       30.12F HX 102
TIFTON         FAIR      92  69  46 NW5       30.11S HX  96
FITZGERALD     FAIR      95  70  43 NW5       30.13F HX 101
CORDELE        FAIR      97  70  40 NW8       30.11F HX 104
AMERICUS       FAIR      95  68  41 N3        30.13S HX  99
$$

!GMZ750-755-770-775-211900
...Coastal and Buoy Obs...

STATION/POSITION TIME  TEMP    WIND        PRES    VSBY  WAVE
                       AIR SEA DIR/SP/G                  HT/PER
                 (UTC) (F)     (DEG/KT/KT) (MB)    (MI)  (FT/S)
KEATON BEACH     1800   86     250/ 10/ 11 1019.5F
CEDAR KEY        1800   87     280/  6/  9 1019.9F
C TOWER          1800   84      CALM  /  3 1020.1F
APALACHICOLA BUO 1800   85 87   20/  6/  6 1020.2F         1/ 8
PANAMA CITY BUOY 1727   85 89   30/  6/  8 1020.7F         1/ 9
MOBILE BUOY      1750   85 91  360/  4/  6 1021.1F
ORANGE BCH AL BU 1800   85 88  250/  4/  6 1020.6F         1/ 5
$$



USA.gov is the U.S. government's official web portal to all federal, state and local government web resources and services.